Hourly Data Report for October 10, 2020

VICTORIA UNIVERSITY CS
BRITISH COLUMBIA
Current Station Operator: ECCC - MSC

48°27'25.200" N
123°18'16.600" W
60.10 m
1018598
71783
WYJ

Download Data

Hourly Data (October 2020)
Hourly Data Report for October 10, 2020
TIME
LST
Temp Definition
°C
Dew Point Definition
°C
Rel Hum Definition
%
Precip. Amount Definition
mm

Wind Dir Definition
10's deg

Wind Spd Definition
km/h
Visibility Definition
km
Stn Press Definition
kPa
Hmdx Definition


Wind Chill Definition


Weather Definition


00:00 11.6 11.6 99 2.4 16 7   99.39     LegendNANA
01:00 11.9 11.8 99 0.7 16 8   99.33     LegendNANA
02:00 11.8 11.7 99 0.5 15 3   99.26     LegendNANA
03:00 11.7 11.7 99 0.2 12 2   99.13     LegendNANA
04:00 12.1 12.0 99 1.2 23 3   99.23     LegendNANA
05:00 11.7 11.3 97 1.5 20 5   99.13     LegendNANA
06:00 10.8 10.5 98 0.0 23 4   99.13     LegendNANA
07:00 10.8 9.6 92 0.0 23 11   99.17     LegendNANA
08:00 11.0 9.1 88 0.0 26 11   99.32     LegendNANA
09:00 12.4 9.0 79 0.2 26 9   99.44     LegendNANA
10:00 12.5 8.5 77 0.0 24 9   99.53     LegendNANA
11:00 14.4 9.3 71 0.0 25 9   99.59     LegendNANA
12:00 14.9 9.2 69 0.0 25 8   99.66     LegendNANA
13:00 14.2 7.1 62 0.0 25 11   99.73     LegendNANA
14:00 15.2 7.2 59 0.0 25 14   99.77     LegendNANA
15:00 14.8 5.6 54 0.0 25 12   99.89     LegendNANA
16:00 13.1 7.1 67 0.0 25 12   100.01     LegendNANA
17:00 12.1 6.3 68 0.3 24 8   100.06     LegendNANA
18:00 10.9 6.7 75 0.0 25 9   100.11     LegendNANA
19:00 10.4 6.9 79 0.0 26 10   100.21     LegendNANA
20:00 10.2 7.1 81 0.0 24 7   100.27     LegendNANA
21:00 10.6 7.2 80 0.0 26 6   100.37     LegendNANA
22:00 10.6 7.3 80 0.0 26 8   100.43     LegendNANA
23:00 10.8 7.2 78 0.0 26 6   100.48     LegendNANA

Notes on Data Quality.

Legend

  • E = Estimated
  • M = Missing
  • NA = Not Available*
  • [empty] = Indicates an unobserved value
Date modified: